This demonstration page uses our WeatherBlox Daily Observations layout. Learn more.

Left ArrowRight Arrow

Hourly Observations for April 21, 2021

Temp ( °F °C ) Dew Point ( °F °C ) Humidity (%) Winds ( mph kmh ) Pressure ( in mb ) Visibility ( mi km ) Precip ( " mm )
12:16 am 00:16 Cloudy 30 -1 30 -1 100 100 N 9 15 30.09 1019 4 6.43736 N/A
12:35 am 00:35 Cloudy 30 -1 30 -1 100 100 NW 7 11 30.09 1019 4 6.43736 N/A
12:55 am 00:55 Cloudy 30 -1 30 -1 100 100 N 10 17 30.09 1019 10 16.0934 N/A
1:16 am 01:16 Mostly Cloudy 28 -2 28 -2 100 100 Calm 30.09 1019 10 16.0934 N/A
1:35 am 01:35 Mostly Cloudy 27 -3 27 -3 100 100 N 8 13 30.11 1020 10 16.0934 N/A
1:55 am 01:55 Cloudy 28 -2 28 -2 100 100 NNW 8 13 30.1 1019 10 16.0934 N/A
2:16 am 02:16 Cloudy 28 -2 28 -2 100 100 NNW 8 13 30.11 1020 10 16.0934 N/A
2:35 am 02:35 Cloudy 28 -2 28 -2 100 100 NW 8 13 30.11 1020 10 16.0934 N/A
2:55 am 02:55 Cloudy 28 -2 28 -2 100 100 Calm 30.11 1020 10 16.0934 N/A
3:15 am 03:15 Cloudy 28 -2 28 -2 100 100 Calm 30.11 1020 10 16.0934 N/A
3:35 am 03:35 Cloudy 28 -2 28 -2 100 100 Calm 30.11 1020 10 16.0934 N/A
3:55 am 03:55 Partly Cloudy 27 -3 27 -3 100 100 Calm 30.13 1020 10 16.0934 N/A
4:15 am 04:15 Clear 25 -4 25 -4 100 100 Calm 30.13 1020 10 16.0934 N/A
4:35 am 04:35 Clear 21 -6 21 -6 100 100 Calm 30.14 1021 7 11.26538 N/A
4:55 am 04:55 Mostly Cloudy 21 -6 21 -6 100 100 Calm 30.14 1021 1.5 2.41401 N/A
5:15 am 05:15 Cloudy 19 -7 19 -7 100 100 Calm 30.14 1021 0.25 0.402335 N/A
5:35 am 05:35 Cloudy 25 -4 25 -4 100 100 Calm N/A 5 8.0467 N/A
5:55 am 05:55 Mostly Cloudy 23 -5 23 -5 100 100 Calm 30.14 1021 5 8.0467 N/A
6:15 am 06:15 Cloudy 27 -3 27 -3 100 100 Calm 30.15 1021 5 8.0467 N/A
6:35 am 06:35 Cloudy 27 -3 27 -3 100 100 Calm 30.15 1021 5 8.0467 N/A
6:55 am 06:55 Cloudy 25 -4 25 -4 100 100 Calm 30.15 1021 5 8.0467 N/A
7:16 am 07:16 Partly Cloudy 25 -4 25 -4 100 100 Calm 30.16 1021 3 4.82802 N/A
7:35 am 07:35 Partly Cloudy 25 -4 25 -4 100 100 Calm 30.17 1022 3 4.82802 N/A
7:55 am 07:55 Partly Cloudy 23 -5 23 -5 100 100 Calm 30.18 1022 2.5 4.02335 N/A
8:15 am 08:15 Mostly Cloudy 25 -4 25 -4 100 100 Calm 30.18 1022 3 4.82802 N/A
8:35 am 08:35 Mostly Cloudy 28 -2 28 -2 100 100 Calm 30.18 1022 3 4.82802 N/A
8:55 am 08:55 Cloudy 28 -2 28 -2 100 100 Calm 30.18 1022 3 4.82802 N/A
9:16 am 09:16 Mostly Cloudy 30 -1 30 -1 100 100 Calm 30.18 1022 5 8.0467 N/A
9:35 am 09:35 Mostly Cloudy 30 -1 30 -1 100 100 Calm 30.18 1022 5 8.0467 N/A
9:55 am 09:55 Cloudy 32 0 32 0 100 100 Calm 30.19 1022 7 11.26538 N/A
10:16 am 10:16 Cloudy 32 0 32 0 100 100 Calm 30.19 1022 7 11.26538 N/A
10:35 am 10:35 Mostly Cloudy 34 1 34 1 100 100 Calm 30.19 1022 7 11.26538 N/A
10:55 am 10:55 Mostly Cloudy 34 1 34 1 100 100 Calm 30.2 1023 10 16.0934 N/A
11:16 am 11:16 Partly Cloudy 36 2 34 1 93 93 Calm 30.2 1023 10 16.0934 N/A
11:35 am 11:35 Sunny 36 2 34 1 93 93 Calm 30.2 1023 10 16.0934 N/A
11:55 am 11:55 Mostly Cloudy 37 3 34 1 87 87 Calm 30.19 1023 10 16.0934 N/A
12:15 pm 12:15 Cloudy 37 3 34 1 87 87 W 10 17 30.19 1023 10 16.0934 N/A
12:35 pm 12:35 Cloudy 39 4 30 -1 70 70 W 5 7 30.19 1022 10 16.0934 N/A
12:55 pm 12:55 Cloudy 41 5 32 0 70 70 Calm 30.18 1022 10 16.0934 N/A
1:15 pm 13:15 Cloudy 39 4 30 -1 70 70 Calm 30.17 1022 10 16.0934 N/A
1:35 pm 13:35 Cloudy 34 1 34 1 100 100 W 20 31 30.21 1023 1.75 2.816345 N/A
1:55 pm 13:55 Cloudy 32 0 32 0 100 100 Calm 30.21 1023 1.25 2.011675 N/A
2:15 pm 14:15 Cloudy 36 2 36 2 100 100 Calm 30.18 1022 10 16.0934 N/A
2:35 pm 14:35 Mostly Cloudy 39 4 39 4 100 100 Calm 30.16 1021 10 16.0934 N/A
2:55 pm 14:55 Mostly Cloudy 41 5 39 4 93 93 SW 7 11 30.16 1021 10 16.0934 N/A
3:15 pm 15:15 Mostly Cloudy 41 5 39 4 93 93 WSW 10 17 30.15 1021 10 16.0934 N/A
3:35 pm 15:35 Mostly Cloudy 45 7 36 2 71 71 W 13 20 30.14 1021 10 16.0934 N/A
3:55 pm 15:55 Mostly Cloudy 43 6 32 0 66 66 W 15 24 30.14 1021 10 16.0934 N/A
4:15 pm 16:15 Mostly Cloudy 39 4 37 3 93 93 NNW 16 26 30.15 1021 7 11.26538 N/A
4:35 pm 16:35 Partly Cloudy 41 5 37 3 87 87 NW 6 9 30.14 1021 10 16.0934 N/A
4:55 pm 16:55 Sunny 43 6 36 2 76 76 WNW 7 11 30.11 1020 10 16.0934 N/A
5:15 pm 17:15 Mostly Cloudy 43 6 34 1 71 71 WNW 3 6 30.11 1020 10 16.0934 N/A
5:35 pm 17:35 Cloudy 41 5 34 1 76 76 W 17 28 30.12 1020 10 16.0934 N/A
5:55 pm 17:55 Mostly Cloudy 39 4 36 2 87 87 Calm 30.11 1020 10 16.0934 N/A
6:15 pm 18:15 Mostly Cloudy 43 6 36 2 76 76 W 5 7 30.1 1019 10 16.0934 N/A
6:35 pm 18:35 Mostly Cloudy 45 7 32 0 61 61 W 28 44 30.11 1020 10 16.0934 N/A
6:55 pm 18:55 Partly Cloudy 43 6 32 0 66 66 W 14 22 30.11 1020 10 16.0934 N/A
7:15 pm 19:15 Partly Cloudy 41 5 30 -1 66 66 W 16 26 30.12 1020 10 16.0934 N/A
7:35 pm 19:35 Cloudy 37 3 34 1 87 87 WNW 13 20 30.13 1020 5 8.0467 N/A
7:55 pm 19:55 Partly Cloudy 37 3 36 2 93 93 Calm 30.13 1020 10 16.0934 N/A
8:15 pm 20:15 Sunny 37 3 36 2 93 93 WSW 10 17 30.13 1020 10 16.0934 N/A
8:35 pm 20:35 Clear 36 2 34 1 93 93 W 9 15 30.14 1021 10 16.0934 N/A
8:55 pm 20:55 Mostly Cloudy 37 3 32 0 81 81 W 12 19 30.13 1020 10 16.0934 N/A
9:15 pm 21:15 Partly Cloudy 36 2 32 0 87 87 W 9 15 30.15 1021 10 16.0934 N/A
9:35 pm 21:35 Clear 36 2 34 1 93 93 Calm 30.15 1021 10 16.0934 N/A
9:55 pm 21:55 Clear 34 1 34 1 100 100 Calm 30.15 1021 10 16.0934 N/A
10:15 pm 22:15 Partly Cloudy 34 1 34 1 100 100 WSW 6 9 30.16 1021 10 16.0934 N/A
10:35 pm 22:35 Partly Cloudy 34 1 34 1 100 100 Calm 30.16 1021 10 16.0934 N/A
10:55 pm 22:55 Partly Cloudy 32 0 32 0 100 100 Calm 30.17 1022 10 16.0934 N/A
11:15 pm 23:15 Clear 34 1 32 0 93 93 Calm 30.16 1021 10 16.0934 N/A
11:35 pm 23:35 Partly Cloudy 34 1 34 1 100 100 Calm 30.16 1021 10 16.0934 N/A
11:55 pm 23:55 Cloudy 34 1 34 1 100 100 Calm 30.16 1021 10 16.0934 N/A

Powered by AerisWeather